Time,TemperatureF,DewpointF,PressureIn,WindDirection,WindDirectionDegrees,WindSpeedMPH,WindSpeedGustMPH,Humidity,HourlyPrecipIn,Conditions,Clouds,dailyrainin,SoftwareType,DateUTC
2019-10-21 00:03:12,52.2,49.8,29.85,NNE,32,2.9,10,92,0,,,0,meteobridge,2019-10-20 22:03:12,
2019-10-21 00:08:13,52.2,49.8,29.84,ENE,71,2,11,92,0,,,0,meteobridge,2019-10-20 22:08:13,
2019-10-21 00:13:13,52.2,49.8,29.84,NE,51,2.9,6,92,0,,,0,meteobridge,2019-10-20 22:13:13,
2019-10-21 00:18:13,52.2,49.8,29.84,NNE,27,6,8,92,0,,,0,meteobridge,2019-10-20 22:18:13,
2019-10-21 00:23:13,52.2,49.8,29.85,NE,39,2.9,4,92,0,,,0,meteobridge,2019-10-20 22:23:13,
2019-10-21 00:28:13,52.2,49.8,29.85,NNE,12,4.9,5,92,0,,,0,meteobridge,2019-10-20 22:28:13,
2019-10-21 00:33:13,52.2,49.8,29.85,NE,56,2.9,6,92,0,,,0,meteobridge,2019-10-20 22:33:13,
2019-10-21 00:38:13,52.2,49.8,29.85,ENE,78,2,9,92,0,,,0,meteobridge,2019-10-20 22:38:13,
2019-10-21 00:43:13,52.2,49.8,29.85,North,349,2,7,92,0,,,0,meteobridge,2019-10-20 22:43:13,
2019-10-21 00:48:13,52.2,49.8,29.86,NE,46,2,6,92,0,,,0,meteobridge,2019-10-20 22:48:13,
2019-10-21 00:53:13,52.2,49.8,29.86,NE,55,2.9,9,92,0,,,0,meteobridge,2019-10-20 22:53:13,
2019-10-21 00:58:13,52.2,49.8,29.85,NNE,15,6.9,7,92,0,,,0,meteobridge,2019-10-20 22:58:13,
2019-10-21 01:03:13,52.2,49.8,29.85,NNE,32,4,8,92,0,,,0,meteobridge,2019-10-20 23:03:13,
2019-10-21 01:08:13,52.2,49.8,29.86,NNE,30,4,7,92,0,,,0,meteobridge,2019-10-20 23:08:13,
2019-10-21 01:13:15,52,49.5,29.86,ENE,64,2,7,91,0,,,0,meteobridge,2019-10-20 23:13:15,
2019-10-21 01:18:15,52.2,49.6,29.86,ENE,63,2,8,91,0,,,0,meteobridge,2019-10-20 23:18:15,
2019-10-21 01:23:15,52,49.5,29.86,ENE,77,4.9,9,91,0,,,0,meteobridge,2019-10-20 23:23:15,
2019-10-21 01:28:15,52,49.5,29.85,East,82,2,10,91,0,,,0,meteobridge,2019-10-20 23:28:15,
2019-10-21 01:33:15,52,49.5,29.85,NE,35,2.9,7,91,0,,,0,meteobridge,2019-10-20 23:33:15,
2019-10-21 01:38:15,52,49.5,29.85,NE,46,6,9,91,0,,,0,meteobridge,2019-10-20 23:38:15,
2019-10-21 01:43:15,52,49.5,29.85,NNE,29,6,10,91,0,,,0,meteobridge,2019-10-20 23:43:15,
2019-10-21 01:48:15,52.2,49.6,29.85,NNE,29,6.9,13,91,0,,,0,meteobridge,2019-10-20 23:48:15,
2019-10-21 01:53:15,52.2,49.6,29.85,NNE,28,4,9,91,0,,,0,meteobridge,2019-10-20 23:53:15,
2019-10-21 01:58:15,52.2,49.6,29.85,NNE,24,0,8,91,0,,,0,meteobridge,2019-10-20 23:58:15,
2019-10-21 02:03:17,52.2,49.6,29.85,NNE,26,4.9,12,91,0,,,0,meteobridge,2019-10-21 00:03:17,
2019-10-21 02:08:17,52.2,49.6,29.85,NNE,33,4,7,91,0,,,0,meteobridge,2019-10-21 00:08:17,
2019-10-21 02:13:17,52,49.5,29.86,NNE,20,4.9,9,91,0,,,0,meteobridge,2019-10-21 00:13:17,
2019-10-21 02:18:17,52,49.5,29.87,NE,42,8.9,11,91,0,,,0,meteobridge,2019-10-21 00:18:17,
2019-10-21 02:23:17,52,49.5,29.87,NNE,31,4.9,9,91,0,,,0,meteobridge,2019-10-21 00:23:17,
2019-10-21 02:28:17,52,49.5,29.86,NNE,24,4,10,91,0,,,0,meteobridge,2019-10-21 00:28:17,
2019-10-21 02:33:17,52,49.1,29.86,NE,50,4,11,90,0,,,0,meteobridge,2019-10-21 00:33:17,
2019-10-21 02:38:17,51.8,48.9,29.86,NE,49,6.9,11,90,0,,,0,meteobridge,2019-10-21 00:38:17,
2019-10-21 02:43:17,51.8,48.9,29.86,NNE,32,6,9,90,0,,,0,meteobridge,2019-10-21 00:43:17,
2019-10-21 02:48:17,51.8,48.9,29.86,NE,43,4,8,90,0,,,0,meteobridge,2019-10-21 00:48:17,
2019-10-21 02:53:17,51.8,48.9,29.86,NNE,31,6,8,90,0,,,0,meteobridge,2019-10-21 00:53:17,
2019-10-21 02:58:17,51.8,48.9,29.85,NE,43,4.9,9,90,0,,,0,meteobridge,2019-10-21 00:58:17,
2019-10-21 03:03:17,51.8,48.9,29.85,NNE,31,6,10,90,0,,,0,meteobridge,2019-10-21 01:03:17,
2019-10-21 03:08:17,51.6,48.7,29.85,NNE,21,4.9,10,90,0,,,0,meteobridge,2019-10-21 01:08:17,
2019-10-21 03:13:17,51.6,48.7,29.86,ENE,59,4.9,11,90,0,,,0,meteobridge,2019-10-21 01:13:17,
2019-10-21 03:18:17,51.6,48.7,29.86,NE,55,4.9,7,90,0,,,0,meteobridge,2019-10-21 01:18:17,
2019-10-21 03:23:17,51.6,48.7,29.85,NE,53,4.9,8,90,0,,,0,meteobridge,2019-10-21 01:23:17,
2019-10-21 03:28:19,51.4,48.6,29.85,ENE,71,2,12,90,0,,,0,meteobridge,2019-10-21 01:28:19,
2019-10-21 03:33:19,51.4,48.6,29.85,NNE,30,4,10,90,0,,,0,meteobridge,2019-10-21 01:33:19,
2019-10-21 03:38:19,51.4,48.9,29.86,NE,35,6.9,8,91,0,,,0,meteobridge,2019-10-21 01:38:19,
2019-10-21 03:43:19,51.4,48.6,29.86,North,5,4.9,8,90,0,,,0,meteobridge,2019-10-21 01:43:19,
2019-10-21 03:48:19,51.3,48.4,29.86,NE,36,4,8,90,0,,,0,meteobridge,2019-10-21 01:48:19,
2019-10-21 03:53:19,51.3,48.4,29.86,ENE,60,11,11,90,0,,,0,meteobridge,2019-10-21 01:53:19,
2019-10-21 03:58:19,51.3,48.4,29.85,NNE,28,6,10,90,0,,,0,meteobridge,2019-10-21 01:58:19,
2019-10-21 04:03:19,51.3,48.4,29.86,NNE,24,8.1,8,90,0,,,0,meteobridge,2019-10-21 02:03:19,
2019-10-21 04:08:19,51.3,48.4,29.86,NNE,21,12.1,12,90,0,,,0,meteobridge,2019-10-21 02:08:19,
2019-10-21 04:13:19,51.3,48.4,29.86,NNE,20,8.1,11,90,0,,,0,meteobridge,2019-10-21 02:13:19,
2019-10-21 04:18:21,51.3,48.4,29.87,NE,50,8.9,11,90,0,,,0,meteobridge,2019-10-21 02:18:21,
2019-10-21 04:23:21,51.3,48.4,29.87,NE,55,6,9,90,0,,,0,meteobridge,2019-10-21 02:23:21,
2019-10-21 04:28:21,51.3,48.7,29.86,East,96,8.1,8,91,0,,,0,meteobridge,2019-10-21 02:28:21,
2019-10-21 04:33:21,51.3,48.7,29.86,NE,51,6.9,12,91,0,,,0,meteobridge,2019-10-21 02:33:21,
2019-10-21 04:38:21,51.3,48.7,29.86,East,80,4.9,7,91,0,,,0,meteobridge,2019-10-21 02:38:21,
2019-10-21 04:43:21,51.3,48.7,29.85,ENE,77,4.9,12,91,0,,,0,meteobridge,2019-10-21 02:43:21,
2019-10-21 04:48:21,51.3,48.7,29.85,NE,34,8.1,9,91,0,,,0,meteobridge,2019-10-21 02:48:21,
2019-10-21 04:53:21,51.3,48.7,29.85,ENE,66,6.9,11,91,0,,,0,meteobridge,2019-10-21 02:53:21,
2019-10-21 04:58:21,51.3,48.7,29.86,NE,53,2.9,10,91,0,,,0,meteobridge,2019-10-21 02:58:21,
2019-10-21 05:03:21,51.3,48.7,29.86,NE,34,4.9,7,91,0,,,0,meteobridge,2019-10-21 03:03:21,
2019-10-21 05:08:21,51.3,48.7,29.86,NNE,24,2.9,9,91,0,,,0,meteobridge,2019-10-21 03:08:21,
2019-10-21 05:13:21,51.3,48.7,29.85,ENE,61,0.9,9,91,0,,,0,meteobridge,2019-10-21 03:13:21,
2019-10-21 05:18:21,51.3,48.7,29.85,East,88,6,8,91,0,,,0,meteobridge,2019-10-21 03:18:21,
2019-10-21 05:23:21,51.3,48.7,29.85,ENE,74,4,8,91,0,,,0,meteobridge,2019-10-21 03:23:21,
2019-10-21 05:28:21,51.3,48.7,29.85,NNE,15,4,10,91,0,,,0,meteobridge,2019-10-21 03:28:21,
2019-10-21 05:33:21,51.3,48.7,29.85,SE,135,2.9,7,91,0,,,0,meteobridge,2019-10-21 03:33:21,
2019-10-21 05:38:21,51.3,49.1,29.85,NNE,31,6,7,92,0,,,0,meteobridge,2019-10-21 03:38:21,
2019-10-21 05:43:23,51.1,48.6,29.85,ENE,71,2.9,9,91,0,,,0,meteobridge,2019-10-21 03:43:23,
2019-10-21 05:48:23,51.1,48.9,29.85,North,11,4.9,10,92,0,,,0,meteobridge,2019-10-21 03:48:23,
2019-10-21 05:53:23,51.1,48.9,29.85,ENE,63,0.9,8,92,0,,,0,meteobridge,2019-10-21 03:53:23,
2019-10-21 05:58:23,51.1,48.9,29.85,East,87,6,8,92,0,,,0,meteobridge,2019-10-21 03:58:23,
2019-10-21 06:03:23,51.1,48.9,29.85,ENE,60,4,7,92,0,,,0,meteobridge,2019-10-21 04:03:23,
2019-10-21 06:08:25,51.1,48.9,29.86,East,80,0,6,92,0.01,,,0.01,meteobridge,2019-10-21 04:08:25,
2019-10-21 06:13:25,51.1,48.9,29.86,NE,51,0.9,7,92,0.02,,,0.02,meteobridge,2019-10-21 04:13:25,
2019-10-21 06:18:26,51.1,48.9,29.86,NE,55,4.9,8,92,0.02,,,0.02,meteobridge,2019-10-21 04:18:26,
2019-10-21 06:23:26,51.1,48.9,29.87,ENE,77,4,6,92,0.02,,,0.02,meteobridge,2019-10-21 04:23:26,
2019-10-21 06:28:26,51.1,48.9,29.86,NNE,30,2.9,7,92,0.02,,,0.02,meteobridge,2019-10-21 04:28:26,
2019-10-21 06:33:26,51.1,48.9,29.86,NE,51,2.9,8,92,0.04,,,0.04,meteobridge,2019-10-21 04:33:26,
2019-10-21 06:38:26,51.1,48.9,29.86,ENE,65,4.9,7,92,0.06,,,0.06,meteobridge,2019-10-21 04:38:26,
2019-10-21 06:43:26,51.1,48.9,29.86,East,80,2.9,9,92,0.06,,,0.06,meteobridge,2019-10-21 04:43:26,
2019-10-21 06:48:26,51.1,48.9,29.86,ENE,76,2.9,8,92,0.06,,,0.07,meteobridge,2019-10-21 04:48:26,
2019-10-21 06:53:26,50.9,48.7,29.86,ENE,64,4.9,11,92,0.08,,,0.08,meteobridge,2019-10-21 04:53:26,
2019-10-21 06:58:26,50.9,48.7,29.87,East,94,2.9,10,92,0.09,,,0.1,meteobridge,2019-10-21 04:58:26,
2019-10-21 07:03:26,50.9,48.7,29.87,ENE,71,4.9,7,92,0.11,,,0.12,meteobridge,2019-10-21 05:03:26,
2019-10-21 07:08:26,50.9,48.7,29.87,NNE,32,2,7,92,0.12,,,0.13,meteobridge,2019-10-21 05:08:26,
2019-10-21 07:13:26,50.9,48.7,29.87,NNE,32,4,7,92,0.13,,,0.15,meteobridge,2019-10-21 05:13:26,
2019-10-21 07:18:26,50.9,48.7,29.87,East,80,8.1,9,92,0.15,,,0.17,meteobridge,2019-10-21 05:18:26,
2019-10-21 07:23:26,50.7,48.6,29.86,ENE,60,4,8,92,0.17,,,0.19,meteobridge,2019-10-21 05:23:26,
2019-10-21 07:28:26,50.7,48.6,29.87,ENE,60,2,4,92,0.17,,,0.2,meteobridge,2019-10-21 05:28:26,
2019-10-21 07:33:26,50.7,48.6,29.88,NE,50,4,8,92,0.17,,,0.21,meteobridge,2019-10-21 05:33:26,
2019-10-21 07:38:26,50.7,48.6,29.87,NNE,18,4.9,6,92,0.16,,,0.21,meteobridge,2019-10-21 05:38:26,
2019-10-21 07:43:26,50.7,48.6,29.88,ENE,71,4,5,92,0.17,,,0.23,meteobridge,2019-10-21 05:43:26,
2019-10-21 07:48:26,50.7,48.6,29.88,East,80,2,8,92,0.18,,,0.24,meteobridge,2019-10-21 05:48:26,
2019-10-21 07:53:26,50.7,48.6,29.88,NE,41,2.9,6,92,0.2,,,0.28,meteobridge,2019-10-21 05:53:26,
2019-10-21 07:58:26,50.7,48.6,29.87,ENE,72,4,10,92,0.2,,,0.31,meteobridge,2019-10-21 05:58:26,
2019-10-21 08:03:26,50.7,48.6,29.87,NE,37,6,9,92,0.21,,,0.32,meteobridge,2019-10-21 06:03:26,
2019-10-21 08:08:26,50.7,48.6,29.87,ENE,67,4,9,92,0.2,,,0.32,meteobridge,2019-10-21 06:08:26,
2019-10-21 08:13:26,50.7,48.6,29.87,ENE,70,0.9,5,92,0.19,,,0.34,meteobridge,2019-10-21 06:13:26,
2019-10-21 08:18:26,50.7,48.6,29.88,ENE,71,4,9,92,0.17,,,0.34,meteobridge,2019-10-21 06:18:26,
2019-10-21 08:23:26,50.7,48.6,29.88,NNE,13,2,8,92,0.15,,,0.34,meteobridge,2019-10-21 06:23:26,
2019-10-21 08:28:26,50.7,48.6,29.88,NE,40,4,9,92,0.14,,,0.34,meteobridge,2019-10-21 06:28:26,
2019-10-21 08:33:26,50.7,48.6,29.88,ENE,71,2.9,9,92,0.13,,,0.34,meteobridge,2019-10-21 06:33:26,
2019-10-21 08:38:26,50.7,48.6,29.88,ENE,60,4.9,8,92,0.13,,,0.34,meteobridge,2019-10-21 06:38:26,
2019-10-21 08:43:26,50.7,48.6,29.88,ENE,57,4,9,92,0.12,,,0.34,meteobridge,2019-10-21 06:43:26,
2019-10-21 08:48:26,50.7,48.6,29.88,ENE,74,4,8,92,0.09,,,0.34,meteobridge,2019-10-21 06:48:26,
2019-10-21 08:53:26,50.7,48.7,29.89,ENE,65,0.9,5,93,0.06,,,0.34,meteobridge,2019-10-21 06:53:26,
2019-10-21 08:58:26,50.7,48.7,29.89,ENE,59,4,5,93,0.04,,,0.34,meteobridge,2019-10-21 06:58:26,
2019-10-21 09:03:26,50.7,48.7,29.89,ENE,71,8.9,9,93,0.02,,,0.34,meteobridge,2019-10-21 07:03:26,
2019-10-21 09:08:26,50.7,48.7,29.89,ENE,65,6.9,8,93,0.02,,,0.34,meteobridge,2019-10-21 07:08:26,
2019-10-21 09:13:28,50.7,48.7,29.90,East,86,2,5,93,0.01,,,0.34,meteobridge,2019-10-21 07:13:28,
2019-10-21 09:18:28,50.9,48.9,29.90,East,86,6,7,93,0,,,0.34,meteobridge,2019-10-21 07:18:28,
2019-10-21 09:23:28,50.9,48.9,29.90,East,85,0,7,93,0,,,0.34,meteobridge,2019-10-21 07:23:28,
2019-10-21 09:28:28,50.9,48.9,29.91,ENE,67,2.9,8,93,0,,,0.34,meteobridge,2019-10-21 07:28:28,
2019-10-21 09:33:28,50.9,48.9,29.91,NE,51,0.9,3,93,0,,,0.34,meteobridge,2019-10-21 07:33:28,
2019-10-21 09:38:28,50.9,48.9,29.91,ENE,71,0,5,93,0,,,0.34,meteobridge,2019-10-21 07:38:28,
2019-10-21 09:43:28,51.1,49.1,29.92,ENE,78,2.9,5,93,0,,,0.34,meteobridge,2019-10-21 07:43:28,
2019-10-21 09:48:28,51.1,49.1,29.92,ENE,69,0.9,7,93,0,,,0.34,meteobridge,2019-10-21 07:48:28,
2019-10-21 09:53:28,51.1,49.1,29.92,ENE,69,2.9,5,93,0,,,0.34,meteobridge,2019-10-21 07:53:28,
2019-10-21 09:58:28,51.1,49.1,29.92,ENE,78,2,5,93,0,,,0.34,meteobridge,2019-10-21 07:58:28,
2019-10-21 10:03:30,51.1,49.1,29.92,East,101,2.9,5,93,0,,,0.34,meteobridge,2019-10-21 08:03:30,
2019-10-21 10:08:30,51.1,48.9,29.92,ENE,63,2.9,5,92,0,,,0.34,meteobridge,2019-10-21 08:08:30,
2019-10-21 10:13:30,51.3,49.1,29.92,ENE,71,0.9,4,92,0,,,0.34,meteobridge,2019-10-21 08:13:30,
2019-10-21 10:18:30,51.3,49.1,29.92,East,86,0,5,92,0,,,0.34,meteobridge,2019-10-21 08:18:30,
2019-10-21 10:23:30,51.3,49.1,29.92,ENE,62,0.9,4,92,0,,,0.34,meteobridge,2019-10-21 08:23:30,
2019-10-21 10:28:30,51.3,49.1,29.93,ENE,65,0,4,92,0,,,0.34,meteobridge,2019-10-21 08:28:30,
2019-10-21 10:33:30,51.4,49.3,29.93,ENE,65,0.9,4,92,0,,,0.34,meteobridge,2019-10-21 08:33:30,
2019-10-21 10:38:30,51.4,49.5,29.93,ENE,75,0,4,93,0,,,0.34,meteobridge,2019-10-21 08:38:30,
2019-10-21 10:43:32,51.4,49.5,29.93,East,86,0.9,5,93,0,,,0.34,meteobridge,2019-10-21 08:43:32,
2019-10-21 10:48:32,51.6,49.6,29.93,ENE,63,0,4,93,0.01,,,0.35,meteobridge,2019-10-21 08:48:32,
2019-10-21 10:53:32,51.6,49.6,29.93,East,101,2,6,93,0.01,,,0.35,meteobridge,2019-10-21 08:53:32,
2019-10-21 10:58:32,51.8,49.8,29.93,East,101,4.9,5,93,0.01,,,0.35,meteobridge,2019-10-21 08:58:32,
2019-10-21 11:03:32,52,50,29.93,East,101,2.9,5,93,0.01,,,0.35,meteobridge,2019-10-21 09:03:32,
2019-10-21 11:08:32,52,49.6,29.93,East,101,0,2,92,0.01,,,0.35,meteobridge,2019-10-21 09:08:32,
2019-10-21 11:13:32,52,49.6,29.93,East,101,0,0,92,0.01,,,0.35,meteobridge,2019-10-21 09:13:32,
2019-10-21 11:18:32,52.2,49.8,29.93,ENE,77,2.9,3,92,0.01,,,0.35,meteobridge,2019-10-21 09:18:32,
2019-10-21 11:23:34,52.2,50.2,29.93,East,94,2,2,93,0.01,,,0.35,meteobridge,2019-10-21 09:23:34,
2019-10-21 11:28:34,52.3,50.4,29.94,East,94,0.9,2,93,0.01,,,0.35,meteobridge,2019-10-21 09:28:34,
2019-10-21 11:33:34,52.5,50.5,29.94,East,94,0,0,93,0.01,,,0.35,meteobridge,2019-10-21 09:33:34,
2019-10-21 11:38:34,52.9,50.9,29.94,East,93,0,0,93,0.01,,,0.35,meteobridge,2019-10-21 09:38:34,
2019-10-21 11:43:34,53.2,51.3,29.94,East,93,2.9,3,93,0.01,,,0.35,meteobridge,2019-10-21 09:43:34,
2019-10-21 11:48:34,54,52,29.94,WSW,241,2,3,93,0,,,0.35,meteobridge,2019-10-21 09:48:34,
2019-10-21 11:53:34,54.3,52.3,29.94,WSW,241,0,3,93,0,,,0.35,meteobridge,2019-10-21 09:53:34,
2019-10-21 11:58:34,54.7,52.7,29.95,South,188,6.9,9,93,0,,,0.35,meteobridge,2019-10-21 09:58:34,
2019-10-21 12:03:34,54.9,52.9,29.95,SSW,206,2.9,7,93,0,,,0.35,meteobridge,2019-10-21 10:03:34,
2019-10-21 12:08:34,54.9,52.9,29.95,South,177,2.9,5,93,0,,,0.35,meteobridge,2019-10-21 10:08:34,
2019-10-21 12:13:36,54.9,52.9,29.96,SW,217,8.1,8,93,0,,,0.35,meteobridge,2019-10-21 10:13:36,
2019-10-21 12:18:36,54.9,52.9,29.96,SW,219,0.9,6,93,0,,,0.35,meteobridge,2019-10-21 10:18:36,
2019-10-21 12:23:36,54.9,52.9,29.96,South,170,2.9,7,93,0,,,0.35,meteobridge,2019-10-21 10:23:36,
2019-10-21 12:28:36,54.9,52.9,29.96,South,188,2.9,10,93,0,,,0.35,meteobridge,2019-10-21 10:28:36,
2019-10-21 12:33:36,54.9,52.9,29.96,SSW,203,4.9,11,93,0,,,0.35,meteobridge,2019-10-21 10:33:36,
2019-10-21 12:38:36,54.9,52.5,29.96,SSW,211,4,8,92,0,,,0.35,meteobridge,2019-10-21 10:38:36,
2019-10-21 12:43:36,54.9,52.9,29.96,South,185,4,5,93,0,,,0.35,meteobridge,2019-10-21 10:43:36,
2019-10-21 12:48:38,55,53.1,29.96,SSW,192,6,8,93,0,,,0.35,meteobridge,2019-10-21 10:48:38,
2019-10-21 12:53:38,55,53.1,29.96,SSW,197,4,8,93,0,,,0.35,meteobridge,2019-10-21 10:53:38,
2019-10-21 12:58:38,55.2,53.2,29.96,SSW,194,6,8,93,0,,,0.35,meteobridge,2019-10-21 10:58:38,
2019-10-21 13:03:38,55.2,52.9,29.97,South,189,0.9,5,92,0,,,0.35,meteobridge,2019-10-21 11:03:38,
2019-10-21 13:08:40,55.2,52.9,29.97,SSW,207,2.9,4,92,0,,,0.35,meteobridge,2019-10-21 11:08:40,
2019-10-21 13:13:40,55.2,52.9,29.97,South,190,2,7,92,0,,,0.35,meteobridge,2019-10-21 11:13:40,
2019-10-21 13:18:40,55.2,52.9,29.97,SSW,201,2.9,4,92,0,,,0.35,meteobridge,2019-10-21 11:18:40,
2019-10-21 13:23:40,55.2,52.9,29.97,SSW,201,0,4,92,0,,,0.35,meteobridge,2019-10-21 11:23:40,
2019-10-21 13:28:40,55.2,52.9,29.97,South,190,4,6,92,0,,,0.35,meteobridge,2019-10-21 11:28:40,
2019-10-21 13:33:40,55,52.7,29.98,SSW,211,6,8,92,0,,,0.35,meteobridge,2019-10-21 11:33:40,
2019-10-21 13:38:41,54.9,52.5,29.97,South,188,4.9,11,92,0,,,0.35,meteobridge,2019-10-21 11:38:41,
2019-10-21 13:43:41,54.7,52.3,29.98,SW,227,4.9,10,92,0,,,0.35,meteobridge,2019-10-21 11:43:41,
2019-10-21 13:48:41,54.3,52,29.98,South,190,8.9,9,92,0,,,0.35,meteobridge,2019-10-21 11:48:41,
2019-10-21 13:53:41,54.3,52,29.98,South,179,4,8,92,0,,,0.35,meteobridge,2019-10-21 11:53:41,
2019-10-21 13:58:41,54.3,52,29.98,South,183,8.9,9,92,0,,,0.35,meteobridge,2019-10-21 11:58:41,
2019-10-21 14:03:41,54.1,51.8,29.99,SSW,205,4,11,92,0,,,0.35,meteobridge,2019-10-21 12:03:41,
2019-10-21 14:08:41,54,51.6,29.99,South,188,6.9,15,92,0,,,0.35,meteobridge,2019-10-21 12:08:41,
2019-10-21 14:13:41,54,51.6,30.00,SW,225,8.1,9,92,0,,,0.35,meteobridge,2019-10-21 12:13:41,
2019-10-21 14:18:41,53.8,51.4,30.00,South,178,6,12,92,0,,,0.35,meteobridge,2019-10-21 12:18:41,
2019-10-21 14:23:41,53.8,51.4,29.99,SSW,196,6.9,10,92,0,,,0.35,meteobridge,2019-10-21 12:23:41,
2019-10-21 14:28:41,54,51.6,29.99,SSW,192,2.9,7,92,0,,,0.35,meteobridge,2019-10-21 12:28:41,
2019-10-21 14:33:41,54,51.6,29.99,South,188,8.1,9,92,0,,,0.35,meteobridge,2019-10-21 12:33:41,
2019-10-21 14:38:41,54,51.6,30.00,South,186,8.9,13,92,0,,,0.35,meteobridge,2019-10-21 12:38:41,
2019-10-21 14:43:41,54,51.6,30.00,SW,230,6.9,11,92,0,,,0.35,meteobridge,2019-10-21 12:43:41,
2019-10-21 14:48:41,54,51.6,29.99,SSW,194,2.9,10,92,0,,,0.35,meteobridge,2019-10-21 12:48:41,
2019-10-21 14:53:41,54,51.6,30.00,SSW,203,6.9,8,92,0,,,0.35,meteobridge,2019-10-21 12:53:41,
2019-10-21 14:58:41,54.1,51.8,30.00,SSW,208,6.9,9,92,0,,,0.35,meteobridge,2019-10-21 12:58:41,
2019-10-21 15:03:41,54.1,51.8,30.00,SSE,163,2.9,7,92,0,,,0.35,meteobridge,2019-10-21 13:03:41,
2019-10-21 15:08:41,54.1,51.8,30.00,SSW,200,6,9,92,0,,,0.35,meteobridge,2019-10-21 13:08:41,
2019-10-21 15:13:43,54.3,52,30.00,SSW,207,2.9,4,92,0,,,0.35,meteobridge,2019-10-21 13:13:43,
2019-10-21 15:18:43,54.3,52,30.00,SSW,211,4,7,92,0,,,0.35,meteobridge,2019-10-21 13:18:43,
2019-10-21 15:23:43,54.3,52,30.00,SSW,203,6,9,92,0,,,0.35,meteobridge,2019-10-21 13:23:43,
2019-10-21 15:28:43,54.3,52,30.00,WSW,243,4,6,92,0,,,0.35,meteobridge,2019-10-21 13:28:43,
2019-10-21 15:33:43,54.3,52,30.00,SSW,213,4.9,8,92,0,,,0.35,meteobridge,2019-10-21 13:33:43,
2019-10-21 15:38:43,54.3,52,30.00,SSW,199,6.9,10,92,0,,,0.35,meteobridge,2019-10-21 13:38:43,
2019-10-21 15:43:43,54.3,51.8,30.01,SW,221,6,14,91,0,,,0.35,meteobridge,2019-10-21 13:43:43,
2019-10-21 15:48:43,54.1,51.6,30.01,SSW,201,6,10,91,0,,,0.35,meteobridge,2019-10-21 13:48:43,
2019-10-21 15:53:43,54.1,51.3,30.01,South,177,6.9,16,90,0,,,0.35,meteobridge,2019-10-21 13:53:43,
2019-10-21 15:58:43,54,51.1,30.01,SE,142,6,12,90,0,,,0.35,meteobridge,2019-10-21 13:58:43,
2019-10-21 16:03:43,54,51.1,30.01,SSW,211,8.9,12,90,0,,,0.35,meteobridge,2019-10-21 14:03:43,
2019-10-21 16:08:43,54,51.1,30.01,SW,230,8.1,11,90,0,,,0.35,meteobridge,2019-10-21 14:08:43,
2019-10-21 16:13:43,54,51.1,30.02,SSW,205,12.1,12,90,0,,,0.35,meteobridge,2019-10-21 14:13:43,
2019-10-21 16:18:43,53.8,50.9,30.02,SSW,204,6.9,14,90,0,,,0.35,meteobridge,2019-10-21 14:18:43,
2019-10-21 16:23:43,53.8,50.9,30.02,South,188,4.9,10,90,0,,,0.35,meteobridge,2019-10-21 14:23:43,
2019-10-21 16:28:43,54,51.1,30.02,SW,222,2,5,90,0,,,0.35,meteobridge,2019-10-21 14:28:43,
2019-10-21 16:33:45,54,51.1,30.01,SW,219,4,7,90,0,,,0.35,meteobridge,2019-10-21 14:33:45,
2019-10-21 16:38:45,54,51.1,30.02,SSW,207,2.9,6,90,0,,,0.35,meteobridge,2019-10-21 14:38:45,
2019-10-21 16:43:45,54,51.1,30.02,SW,215,0.9,5,90,0,,,0.35,meteobridge,2019-10-21 14:43:45,
2019-10-21 16:48:45,54,51.1,30.02,South,177,2,7,90,0,,,0.35,meteobridge,2019-10-21 14:48:45,
2019-10-21 16:53:45,54,51.1,30.02,SW,228,4.9,7,90,0,,,0.35,meteobridge,2019-10-21 14:53:45,
2019-10-21 16:58:45,54,51.1,30.02,South,184,6.9,9,90,0,,,0.35,meteobridge,2019-10-21 14:58:45,
2019-10-21 17:03:45,53.8,50.5,30.02,SW,234,6.9,9,89,0,,,0.35,meteobridge,2019-10-21 15:03:45,
2019-10-21 17:08:45,54,51.1,30.02,SSW,209,4,7,90,0,,,0.35,meteobridge,2019-10-21 15:08:45,
2019-10-21 17:13:45,54,51.1,30.02,SSE,151,4,6,90,0,,,0.35,meteobridge,2019-10-21 15:13:45,
2019-10-21 17:18:45,54,50.7,30.02,SSW,201,2.9,3,89,0,,,0.35,meteobridge,2019-10-21 15:18:45,
2019-10-21 17:23:45,54,50.7,30.02,SSW,203,6,8,89,0,,,0.35,meteobridge,2019-10-21 15:23:45,
2019-10-21 17:28:45,54,50.7,30.03,SSE,159,4.9,8,89,0,,,0.35,meteobridge,2019-10-21 15:28:45,
2019-10-21 17:33:45,54,50.7,30.03,SSW,195,2.9,6,89,0,,,0.35,meteobridge,2019-10-21 15:33:45,
2019-10-21 17:38:45,54,50.7,30.03,SSE,160,2.9,7,89,0,,,0.35,meteobridge,2019-10-21 15:38:45,
2019-10-21 17:43:45,54,50.7,30.03,SSE,166,6,9,89,0,,,0.35,meteobridge,2019-10-21 15:43:45,
2019-10-21 17:48:47,54,50.7,30.03,ESE,116,4,8,89,0,,,0.35,meteobridge,2019-10-21 15:48:47,
2019-10-21 17:53:47,54,50.7,30.03,SSW,211,2,4,89,0,,,0.35,meteobridge,2019-10-21 15:53:47,
2019-10-21 17:58:47,54,50.7,30.03,South,182,2.9,7,89,0,,,0.35,meteobridge,2019-10-21 15:58:47,
2019-10-21 18:03:47,53.8,50.5,30.03,South,175,4,8,89,0,,,0.35,meteobridge,2019-10-21 16:03:47,
2019-10-21 18:08:47,53.8,50.5,30.04,South,176,6,8,89,0,,,0.35,meteobridge,2019-10-21 16:08:47,
2019-10-21 18:13:47,53.6,50.4,30.04,SSE,168,6.9,7,89,0,,,0.35,meteobridge,2019-10-21 16:13:47,
2019-10-21 18:18:47,53.6,50.7,30.04,SSE,151,2.9,3,90,0,,,0.35,meteobridge,2019-10-21 16:18:47,
2019-10-21 18:23:47,53.4,50.5,30.04,South,176,6,6,90,0,,,0.35,meteobridge,2019-10-21 16:23:47,
2019-10-21 18:28:47,53.4,50.5,30.04,South,173,2.9,7,90,0,,,0.35,meteobridge,2019-10-21 16:28:47,
2019-10-21 18:33:47,53.4,50.5,30.04,South,182,2.9,6,90,0,,,0.35,meteobridge,2019-10-21 16:33:47,
2019-10-21 18:38:49,53.4,50.5,30.05,South,185,2.9,3,90,0,,,0.35,meteobridge,2019-10-21 16:38:49,
2019-10-21 18:43:49,53.4,50.5,30.05,South,185,2,5,90,0,,,0.35,meteobridge,2019-10-21 16:43:49,
2019-10-21 18:48:49,53.2,50.4,30.05,South,181,0.9,4,90,0,,,0.35,meteobridge,2019-10-21 16:48:49,
2019-10-21 18:53:49,53.2,50.4,30.05,SSW,194,2,6,90,0,,,0.35,meteobridge,2019-10-21 16:53:49,
2019-10-21 18:58:49,53.2,50.4,30.05,SSW,201,0.9,6,90,0,,,0.35,meteobridge,2019-10-21 16:58:49,
2019-10-21 19:03:49,53.2,50.4,30.05,South,186,0.9,7,90,0,,,0.35,meteobridge,2019-10-21 17:03:49,
2019-10-21 19:08:49,53.2,50.4,30.05,South,182,4,4,90,0,,,0.35,meteobridge,2019-10-21 17:08:49,
2019-10-21 19:13:49,53.2,50.4,30.06,South,182,0,3,90,0,,,0.35,meteobridge,2019-10-21 17:13:49,
2019-10-21 19:18:49,53.2,50.4,30.05,SSW,196,0,8,90,0,,,0.35,meteobridge,2019-10-21 17:18:49,
2019-10-21 19:23:49,53.2,50.4,30.06,SW,216,0.9,8,90,0,,,0.35,meteobridge,2019-10-21 17:23:49,
2019-10-21 19:28:51,53.2,50.4,30.06,South,187,2,5,90,0,,,0.35,meteobridge,2019-10-21 17:28:51,
2019-10-21 19:33:51,53.2,50.4,30.06,South,172,4,8,90,0,,,0.35,meteobridge,2019-10-21 17:33:51,
2019-10-21 19:38:51,53.1,50.2,30.06,SSW,203,4,8,90,0,,,0.35,meteobridge,2019-10-21 17:38:51,
2019-10-21 19:43:51,53.1,50.2,30.07,ESE,123,2,6,90,0,,,0.35,meteobridge,2019-10-21 17:43:51,
2019-10-21 19:48:51,53.1,50.2,30.07,South,173,2.9,5,90,0,,,0.35,meteobridge,2019-10-21 17:48:51,
2019-10-21 19:53:53,53.1,50.2,30.06,South,190,2.9,5,90,0,,,0.35,meteobridge,2019-10-21 17:53:53,
2019-10-21 19:58:53,53.1,50.2,30.06,SSW,196,0.9,5,90,0,,,0.35,meteobridge,2019-10-21 17:58:53,
2019-10-21 20:03:53,53.1,50.2,30.07,SSW,209,4,7,90,0,,,0.35,meteobridge,2019-10-21 18:03:53,
2019-10-21 20:08:53,53.1,50.2,30.07,SSW,202,0.9,6,90,0,,,0.35,meteobridge,2019-10-21 18:08:53,
2019-10-21 20:13:53,53.1,50.5,30.07,SSW,193,2,7,91,0,,,0.35,meteobridge,2019-10-21 18:13:53,
2019-10-21 20:18:55,52.9,50.4,30.07,South,174,0.9,5,91,0,,,0.35,meteobridge,2019-10-21 18:18:55,
2019-10-21 20:23:55,52.9,50.4,30.07,South,185,0.9,3,91,0,,,0.35,meteobridge,2019-10-21 18:23:55,
2019-10-21 20:28:55,52.9,50.4,30.08,South,186,4,7,91,0,,,0.35,meteobridge,2019-10-21 18:28:55,
2019-10-21 20:33:55,52.9,50.4,30.07,SSW,205,4.9,5,91,0,,,0.35,meteobridge,2019-10-21 18:33:55,
2019-10-21 20:38:55,52.7,50.2,30.07,South,179,6,7,91,0,,,0.35,meteobridge,2019-10-21 18:38:55,
2019-10-21 20:43:55,52.7,50.2,30.08,SSW,208,4.9,8,91,0,,,0.35,meteobridge,2019-10-21 18:43:55,
2019-10-21 20:48:58,52.5,50,30.08,SSE,157,0,5,91,0,,,0.35,meteobridge,2019-10-21 18:48:58,
2019-10-21 20:54:00,52.5,50,30.08,SSE,157,2,5,91,0,,,0.35,meteobridge,2019-10-21 18:54:00,
2019-10-21 20:59:00,52.5,50,30.09,South,177,4,7,91,0,,,0.35,meteobridge,2019-10-21 18:59:00,
2019-10-21 21:04:00,52.5,50,30.08,SSW,196,0,0,91,0,,,0.35,meteobridge,2019-10-21 19:04:00,
2019-10-21 21:09:00,52.5,50,30.08,South,169,4.9,5,91,0,,,0.35,meteobridge,2019-10-21 19:09:00,
2019-10-21 21:14:00,52.5,50,30.08,SSE,168,2.9,5,91,0,,,0.35,meteobridge,2019-10-21 19:14:00,
2019-10-21 21:19:00,52.5,50.2,30.08,South,180,2,5,92,0,,,0.35,meteobridge,2019-10-21 19:19:00,
2019-10-21 21:24:00,52.5,50.2,30.08,SSW,213,2,6,92,0,,,0.35,meteobridge,2019-10-21 19:24:00,
2019-10-21 21:29:00,52.5,50.2,30.08,South,176,2,5,92,0,,,0.35,meteobridge,2019-10-21 19:29:00,
2019-10-21 21:34:00,52.5,50.2,30.08,SSW,202,4,4,92,0,,,0.35,meteobridge,2019-10-21 19:34:00,
2019-10-21 21:39:00,52.5,50.2,30.08,South,176,2,5,92,0,,,0.35,meteobridge,2019-10-21 19:39:00,
2019-10-21 21:44:00,52.5,50.2,30.08,South,188,4,4,92,0,,,0.35,meteobridge,2019-10-21 19:44:00,
2019-10-21 21:49:00,52.5,50.2,30.08,South,188,2,4,92,0,,,0.35,meteobridge,2019-10-21 19:49:00,
2019-10-21 21:54:00,52.5,50.2,30.09,South,188,2,4,92,0,,,0.35,meteobridge,2019-10-21 19:54:00,
2019-10-21 21:59:00,52.5,50.2,30.08,South,188,4,5,92,0,,,0.35,meteobridge,2019-10-21 19:59:00,
2019-10-21 22:04:00,52.5,50.2,30.09,South,188,0.9,5,92,0,,,0.35,meteobridge,2019-10-21 20:04:00,
2019-10-21 22:09:00,52.5,50.2,30.09,South,188,2.9,4,92,0,,,0.35,meteobridge,2019-10-21 20:09:00,
2019-10-21 22:14:00,52.5,50.2,30.09,South,169,2.9,5,92,0,,,0.35,meteobridge,2019-10-21 20:14:00,
2019-10-21 22:19:00,52.5,50.2,30.09,South,175,2,7,92,0,,,0.35,meteobridge,2019-10-21 20:19:00,
2019-10-21 22:24:00,52.7,50.4,30.09,SSW,194,2.9,5,92,0,,,0.35,meteobridge,2019-10-21 20:24:00,
2019-10-21 22:29:00,52.7,50.4,30.09,South,177,0.9,5,92,0,,,0.35,meteobridge,2019-10-21 20:29:00,
2019-10-21 22:34:00,52.7,50.4,30.09,South,177,2,5,92,0,,,0.35,meteobridge,2019-10-21 20:34:00,
2019-10-21 22:39:00,52.7,50.4,30.09,South,173,2.9,6,92,0,,,0.35,meteobridge,2019-10-21 20:39:00,
2019-10-21 22:44:00,52.7,50.4,30.09,SSW,209,2.9,5,92,0,,,0.35,meteobridge,2019-10-21 20:44:00,
2019-10-21 22:49:00,52.9,50.5,30.09,South,172,2,4,92,0,,,0.35,meteobridge,2019-10-21 20:49:00,
2019-10-21 22:54:00,52.9,50.5,30.10,SSW,197,0.9,6,92,0,,,0.35,meteobridge,2019-10-21 20:54:00,
2019-10-21 22:59:00,52.9,50.5,30.09,South,190,4,5,92,0,,,0.35,meteobridge,2019-10-21 20:59:00,
2019-10-21 23:04:02,52.9,50.5,30.09,SW,227,2.9,7,92,0,,,0.35,meteobridge,2019-10-21 21:04:02,
2019-10-21 23:09:02,52.9,50.5,30.09,SSW,207,2,5,92,0,,,0.35,meteobridge,2019-10-21 21:09:02,
2019-10-21 23:14:02,52.9,50.5,30.09,SSW,206,4,4,92,0,,,0.35,meteobridge,2019-10-21 21:14:02,
2019-10-21 23:19:02,52.9,50.5,30.09,SSW,206,6,6,92,0,,,0.35,meteobridge,2019-10-21 21:19:02,
2019-10-21 23:24:02,52.9,50.5,30.09,SSW,206,2,4,92,0,,,0.35,meteobridge,2019-10-21 21:24:02,
2019-10-21 23:29:02,52.7,50.4,30.09,SSW,206,2,4,92,0,,,0.35,meteobridge,2019-10-21 21:29:02,
2019-10-21 23:34:02,52.5,50.2,30.09,SSW,206,0,1,92,0,,,0.35,meteobridge,2019-10-21 21:34:02,
2019-10-21 23:39:02,52.5,50.2,30.09,SSW,206,0,0,92,0,,,0.35,meteobridge,2019-10-21 21:39:02,
2019-10-21 23:44:02,52.5,50.2,30.10,SSW,206,0,2,92,0,,,0.35,meteobridge,2019-10-21 21:44:02,
2019-10-21 23:49:02,52.3,50,30.09,SSW,206,2,3,92,0,,,0.35,meteobridge,2019-10-21 21:49:02,
2019-10-21 23:54:04,52.3,50,30.10,SSW,206,2.9,4,92,0,,,0.35,meteobridge,2019-10-21 21:54:04,
2019-10-21 23:59:04,52.2,49.8,30.10,SSW,206,4,5,92,0,,,0.35,meteobridge,2019-10-21 21:59:04,